When you browse on this site, cookies collect data to enhance your experience and personalize the content and advertising you see.
Visit our Privacy Policy to learn more. By continuing to use the site, you agree to this use of cookies and data.
  • în România
  • Lista ţărilor
  • Pe 7 zile
  • Temperatura apei
  • Meteo pe hartă
  • Widget-uri
  • user-avatar
    Intrare

    Meteo pe oră la Manaus

    Astăzi, 11 Decembrie, Miercuri

    Timp Temperatura Precipitaţii Vânt Presiune Umiditate
    00:00 +25°C° 0 mm 0 m/s 753 mmHg 87%
    01:00 +25°C° 0 mm 0 m/s 752 mmHg 89%
    02:00 +24°C° 0 mm 0 m/s 752 mmHg 89%
    03:00 +24°C° 0.4 mm 0 m/s 752 mmHg 90%
    04:00 +26°C° 0.4 mm 1 m/s 752 mmHg 92%
    05:00 +25°C° 0.4 mm 1 m/s 752 mmHg 94%
    06:00 +26°C° 0.2 mm 1 m/s 753 mmHg 90%
    07:00 +27°C° 0.2 mm 1 m/s 753 mmHg 87%
    08:00 +28°C° 0.2 mm 2 m/s 754 mmHg 83%
    09:00 +29°C° 1.9 mm 2 m/s 754 mmHg 83%
    10:00 +30°C° 1.9 mm 2 m/s 753 mmHg 83%
    11:00 +30°C° 1.9 mm 2 m/s 753 mmHg 82%
    12:00 +32°C° 0.4 mm 2 m/s 752 mmHg 73%
    13:00 +34°C° 0.4 mm 2 m/s 751 mmHg 64%
    14:00 +35°C° 0.4 mm 1 m/s 750 mmHg 54%
    15:00 +33°C° 0.5 mm 1 m/s 750 mmHg 63%
    16:00 +32°C° 0.5 mm 1 m/s 749 mmHg 71%
    17:00 +30°C° 0.5 mm 1 m/s 749 mmHg 80%
    18:00 +29°C° 1.1 mm 1 m/s 750 mmHg 84%
    19:00 +28°C° 1.1 mm 1 m/s 750 mmHg 88%
    20:00 +27°C° 1.1 mm 1 m/s 751 mmHg 92%
    21:00 +27°C° 0.8 mm 1 m/s 751 mmHg 93%
    22:00 +27°C° 0.8 mm 1 m/s 752 mmHg 93%
    23:00 +26°C° 0.8 mm 1 m/s 752 mmHg 94%

    Mâine, 12 Decembrie, Joi

    Timp Temperatura Precipitaţii Vânt Presiune Umiditate
    00:00 +26°C° 0.1 mm 1 m/s 751 mmHg 94%
    01:00 +26°C° 0.1 mm 1 m/s 750 mmHg 94%
    02:00 +26°C° 0.1 mm 1 m/s 750 mmHg 94%
    03:00 +26°C° 0.1 mm 1 m/s 750 mmHg 94%
    04:00 +26°C° 0.1 mm 1 m/s 750 mmHg 95%
    05:00 +26°C° 0.1 mm 1 m/s 751 mmHg 95%
    06:00 +26°C° 1.2 mm 1 m/s 751 mmHg 94%
    07:00 +27°C° 1.2 mm 1 m/s 752 mmHg 93%
    08:00 +28°C° 1.2 mm 1 m/s 753 mmHg 93%
    09:00 +28°C° 2.5 mm 1 m/s 753 mmHg 92%
    10:00 +28°C° 2.5 mm 2 m/s 753 mmHg 92%
    11:00 +28°C° 2.5 mm 2 m/s 753 mmHg 91%
    12:00 +28°C° 0.8 mm 2 m/s 752 mmHg 91%
    13:00 +28°C° 0.8 mm 1 m/s 752 mmHg 91%
    14:00 +27°C° 0.8 mm 1 m/s 751 mmHg 91%
    15:00 +27°C° 0 mm 1 m/s 751 mmHg 92%
    16:00 +27°C° 0 mm 1 m/s 750 mmHg 92%
    17:00 +25°C° 0 mm 0 m/s 750 mmHg 92%
    18:00 +25°C° 0 mm 0 m/s 750 mmHg 93%
    19:00 +24°C° 0 mm 0 m/s 751 mmHg 93%
    20:00 +24°C° 0 mm 0 m/s 751 mmHg 94%
    21:00 +24°C° 0 mm 0 m/s 751 mmHg 94%
    22:00 +24°C° 0 mm 0 m/s 751 mmHg 94%
    23:00 +23°C° 0 mm 0 m/s 752 mmHg 95%

    Poimâine, 13 Decembrie, Vineri

    Timp Temperatura Precipitaţii Vânt Presiune Umiditate
    00:00 +23°C° 0 mm 0 m/s 751 mmHg 95%
    01:00 +23°C° 0 mm 0 m/s 751 mmHg 95%
    02:00 +23°C° 0 mm 0 m/s 751 mmHg 95%
    03:00 +23°C° 0.2 mm 0 m/s 751 mmHg 96%
    04:00 +23°C° 0.2 mm 0 m/s 751 mmHg 97%
    05:00 +23°C° 0.2 mm 0 m/s 751 mmHg 98%
    06:00 +26°C° 0.1 mm 1 m/s 752 mmHg 94%
    07:00 +27°C° 0.1 mm 1 m/s 752 mmHg 91%
    08:00 +28°C° 0.1 mm 1 m/s 753 mmHg 88%
    09:00 +29°C° 0.6 mm 1 m/s 753 mmHg 80%
    10:00 +31°C° 0.6 mm 1 m/s 753 mmHg 73%
    11:00 +33°C° 0.6 mm 1 m/s 753 mmHg 66%
    12:00 +33°C° 0.6 mm 1 m/s 752 mmHg 65%
    13:00 +33°C° 0.6 mm 1 m/s 751 mmHg 64%
    14:00 +34°C° 0.6 mm 1 m/s 750 mmHg 62%
    15:00 +32°C° 0.5 mm 1 m/s 750 mmHg 69%
    16:00 +31°C° 0.5 mm 1 m/s 750 mmHg 76%
    17:00 +30°C° 0.5 mm 1 m/s 749 mmHg 82%
    18:00 +29°C° 0.2 mm 1 m/s 750 mmHg 85%
    19:00 +26°C° 0.2 mm 0 m/s 750 mmHg 87%
    20:00 +25°C° 0.2 mm 0 m/s 751 mmHg 90%
    21:00 +25°C° 0.1 mm 0 m/s 751 mmHg 91%
    22:00 +26°C° 0.1 mm 1 m/s 751 mmHg 92%
    23:00 +26°C° 0.1 mm 1 m/s 752 mmHg 93%

    14 Decembrie, Sâmbătă

    Timp Temperatura Precipitaţii Vânt Presiune Umiditate
    00:00 +26°C° 0 mm 1 m/s 751 mmHg 93%
    01:00 +26°C° 0 mm 1 m/s 751 mmHg 94%
    02:00 +26°C° 0 mm 1 m/s 751 mmHg 94%
    03:00 +26°C° 0 mm 1 m/s 751 mmHg 95%
    04:00 +23°C° 0 mm 0 m/s 751 mmHg 96%
    05:00 +23°C° 0 mm 0 m/s 751 mmHg 96%
    06:00 +24°C° 0.1 mm 0 m/s 752 mmHg 92%
    07:00 +28°C° 0.1 mm 1 m/s 753 mmHg 87%
    08:00 +29°C° 0.1 mm 1 m/s 753 mmHg 82%
    09:00 +30°C° 0.8 mm 1 m/s 753 mmHg 77%
    10:00 +31°C° 0.8 mm 1 m/s 753 mmHg 72%
    11:00 +34°C° 0.8 mm 2 m/s 753 mmHg 66%
    12:00 +34°C° 0.2 mm 1 m/s 752 mmHg 62%
    13:00 +34°C° 0.2 mm 1 m/s 751 mmHg 57%
    14:00 +35°C° 0.2 mm 1 m/s 750 mmHg 53%
    15:00 +34°C° 0.4 mm 1 m/s 750 mmHg 59%
    16:00 +33°C° 0.4 mm 1 m/s 750 mmHg 65%
    17:00 +32°C° 0.4 mm 1 m/s 749 mmHg 71%
    18:00 +30°C° 0.9 mm 1 m/s 750 mmHg 77%
    19:00 +29°C° 0.9 mm 1 m/s 751 mmHg 83%
    20:00 +25°C° 0.9 mm 0 m/s 751 mmHg 89%
    21:00 +27°C° 0 mm 1 m/s 752 mmHg 90%
    22:00 +27°C° 0 mm 1 m/s 752 mmHg 90%
    23:00 +27°C° 0 mm 1 m/s 752 mmHg 91%

    15 Decembrie, Duminică

    Timp Temperatura Precipitaţii Vânt Presiune Umiditate
    00:00 +26°C° 0 mm 1 m/s 752 mmHg 92%
    01:00 +26°C° 0 mm 1 m/s 751 mmHg 93%
    02:00 +26°C° 0 mm 1 m/s 751 mmHg 94%
    03:00 +26°C° 0.4 mm 1 m/s 751 mmHg 95%
    04:00 +26°C° 0.4 mm 1 m/s 752 mmHg 96%
    05:00 +26°C° 0.4 mm 2 m/s 752 mmHg 96%
    06:00 +26°C° 2.4 mm 1 m/s 753 mmHg 96%
    07:00 +26°C° 2.4 mm 1 m/s 753 mmHg 97%
    08:00 +26°C° 2.4 mm 1 m/s 754 mmHg 97%
    09:00 +26°C° 6.8 mm 1 m/s 754 mmHg 97%
    10:00 +26°C° 6.8 mm 1 m/s 754 mmHg 98%
    11:00 +26°C° 6.8 mm 2 m/s 754 mmHg 98%
    12:00 +26°C° 4.3 mm 2 m/s 753 mmHg 97%
    13:00 +26°C° 4.3 mm 2 m/s 753 mmHg 96%
    14:00 +26°C° 4.3 mm 2 m/s 752 mmHg 95%
    15:00 +27°C° 0 mm 2 m/s 752 mmHg 93%
    16:00 +27°C° 0 mm 1 m/s 751 mmHg 91%
    17:00 +27°C° 0 mm 1 m/s 751 mmHg 90%
    18:00 +27°C° 0 mm 1 m/s 752 mmHg 92%
    19:00 +26°C° 0 mm 1 m/s 752 mmHg 94%
    20:00 +26°C° 0 mm 1 m/s 753 mmHg 96%
    21:00 +25°C° 0 mm 1 m/s 753 mmHg 96%
    22:00 +25°C° 0 mm 1 m/s 753 mmHg 96%
    23:00 +25°C° 0 mm 1 m/s 754 mmHg 96%

    16 Decembrie, Luni

    Timp Temperatura Precipitaţii Vânt Presiune Umiditate
    00:00 +25°C° 0.2 mm 1 m/s 753 mmHg 96%
    01:00 +25°C° 0.2 mm 1 m/s 753 mmHg 96%
    02:00 +25°C° 0.2 mm 2 m/s 752 mmHg 96%
    03:00 +25°C° 0.2 mm 1 m/s 752 mmHg 96%
    04:00 +25°C° 0.2 mm 1 m/s 752 mmHg 97%
    05:00 +25°C° 0.2 mm 1 m/s 752 mmHg 98%
    06:00 +25°C° 0.1 mm 1 m/s 753 mmHg 96%
    07:00 +25°C° 0.1 mm 1 m/s 754 mmHg 95%
    08:00 +26°C° 0.1 mm 1 m/s 754 mmHg 93%
    09:00 +24°C° 0.4 mm 0 m/s 755 mmHg 92%
    10:00 +25°C° 0.4 mm 0 m/s 755 mmHg 91%
    11:00 +25°C° 0.4 mm 0 m/s 755 mmHg 90%
    12:00 +25°C° 0.5 mm 0 m/s 754 mmHg 91%
    13:00 +25°C° 0.5 mm 0 m/s 753 mmHg 92%
    14:00 +25°C° 0.5 mm 0 m/s 752 mmHg 93%
    15:00 +25°C° 0.5 mm 0 m/s 752 mmHg 93%
    16:00 +25°C° 0.5 mm 0 m/s 752 mmHg 93%
    17:00 +25°C° 0.5 mm 0 m/s 751 mmHg 93%
    18:00 +26°C° 0.3 mm 1 m/s 752 mmHg 94%
    19:00 +26°C° 0.3 mm 1 m/s 752 mmHg 95%
    20:00 +25°C° 0.3 mm 1 m/s 753 mmHg 96%
    21:00 +23°C° 0 mm 0 m/s 753 mmHg 96%
    22:00 +23°C° 0 mm 0 m/s 753 mmHg 96%
    23:00 +23°C° 0 mm 0 m/s 753 mmHg 96%
    Arată mai mult